Powrót do katalogu

COSMOS 2070

AktywnyMilitariaLEO
NORAD 20555·PAYLOAD·🇷🇺 Russia

Wystrzelony Apr 6, 1990 z Plesetsk Cosmodrome

Loading…

Następne Przeloty (najbliższe 24 godziny)

TLE

ŚwieżeSource: Space-Track

Epoka: Sep 14, 2026, 21:55 UTC

1 20555U 90029G   26257.91359999 -.00000027  00000-0 -67091-4 0  9991
2 20555  73.9803  60.5900 0013482 194.8490 319.4165 12.52806511666640

Śledź COSMOS 2070 w czasie rzeczywistym z AllMySat

Download on the App Store